Weather in Bemidji

United States     47°28′43″N   94°51′50″W
temp.,
°C
wind,
m/s
gust,
m/s
humid.,
%
clouds,
%
prec.,
mm/h
press.,
hPa
HPBL,
m
23 may, mon
mon2301:00+3ssw34905 0.0 102766
04:00+2ssw379199 0.0 1027128
07:00+4ssw388394 0.0 1027197
10:00+12sw464929 0.0 10261064
13:00+15ssw463788 0.0 10232543
16:00+17ssw4640100 0.0 10212439
19:00+13s487199 0.3 1021465
22:00+11s51370100 0.0 1021577
24 may, tue
tue2401:00+8ssw41393100 0.6 1022476
04:00+6ssw24965 0.0 102271
07:00+7ssw39935 0.0 1023233
10:00+14sw46620 0.0 10221029
13:00+18ssw464464 0.0 10212349
16:00+17sw4653100 0.0 10201143
19:00+16ssw256258 0.0 1021366
22:00+12sse227199 0.0 102249
25 may, wed
wed2501:00+8sse2282100 0.0 102215
04:00+7se2288100 0.0 102134
07:00+9se2780100 0.0 1021195
10:00+13se4760100 0.0 1019754
13:00+13se5657100 0.1 10191401
16:00+8ese3692100 0.8 1018403
19:00+8e3792100 0.8 1016550
22:00+7ese1495100 0.0 1016180
26 may, thu
thu2601:00+6se1295100 0.0 101551
04:00+4e00984 0.0 101410
07:00+6s23946 0.0 1016112
10:00+11s227470 0.0 1015517
13:00+17s12556 0.0 1013949
16:00+19sw345390 0.0 10121559
19:00+18ssw346930 0.1 1012428
22:00+12s22910 0.1 101332
27 may, fri
fri2701:00+10ssw239512 0.1 101356
04:00+10ssw23965 0.0 101354
07:00+11s26925 0.0 1014168
10:00+19ssw34655 0.0 1013574
13:00+22ssw325244 0.2 10121792
16:00+23ssw3350100 0.1 10111847
19:00+18se247399 0.1 101170
22:00+14sse3891100 0.0 1011133